Torna al catalogo

IKONOS 2

AttivoScienzaSSO
NORAD 25919·PAYLOAD·🇺🇸 United States

Lanciato Sep 24, 1999 da Vandenberg Space Force Base

Loading…

Prossimi Passaggi (prossime 24 ore)

TLE

AggiornatoSource: Space-Track

Epoca: Sep 14, 2026, 03:48 UTC

1 25919U 99051A   26257.15841115  .00000972  00000-0  88670-4 0  9999
2 25919  98.1193 149.6202 0005155 270.8824  89.1806 14.97593396452234

Traccia IKONOS 2 in tempo reale con AllMySat

Download on the App Store